| time (UTC) | temp F | wind direction | speed knots | gust knots | rain 1hr in | rain 24hr in | rain mn in | humidity % | barometer mb |
| 20260504214600 | 76 | 219 | 1.7 | 6.1 | 0.00 | 0.00 | 0.00 | 39 | 1008.4 |
| 20260504213110 | 76 | 246 | 3.5 | 7.8 | 0.00 | 0.00 | 0.00 | 38 | 1008.4 |
| 20260504211559 | 76 | 242 | 2.6 | 7.0 | 0.00 | 0.00 | 0.00 | 39 | 1008.5 |
| 20260504210054 | 76 | 165 | 2.6 | 12.2 | 0.00 | 0.00 | 0.00 | 40 | 1008.5 |
| 20260504204602 | 76 | 227 | 3.5 | 11.3 | 0.00 | 0.00 | 0.00 | 39 | 1008.7 |
| 20260504203058 | 76 | 155 | 3.5 | 10.4 | 0.00 | 0.00 | 0.00 | 39 | 1008.8 |
| 20260504201552 | 76 | 153 | 2.6 | 10.4 | 0.00 | 0.00 | 0.00 | 39 | 1008.9 |
| 20260504200054 | 77 | 220 | 2.6 | 9.6 | 0.00 | 0.00 | 0.00 | 38 | 1009.1 |
| 20260504194551 | 76 | 178 | 3.5 | 10.4 | 0.00 | 0.00 | 0.00 | 39 | 1009.3 |
| 20260504193059 | 76 | 132 | 2.6 | 8.7 | 0.00 | 0.00 | 0.00 | 39 | 1009.4 |
| 20260504191545 | 75 | 218 | 2.6 | 11.3 | 0.00 | 0.00 | 0.00 | 39 | 1009.7 |
| 20260504190052 | 75 | 248 | 3.5 | 11.3 | 0.00 | 0.00 | 0.00 | 40 | 1009.7 |
| 20260504184547 | 75 | 188 | 1.7 | 8.7 | 0.00 | 0.00 | 0.00 | 38 | 1009.9 |
| 20260504183056 | 75 | 121 | 2.6 | 7.0 | 0.00 | 0.00 | 0.00 | 43 | 1010.1 |
| 20260504181537 | 74 | 155 | 2.6 | 11.3 | 0.00 | 0.00 | 0.00 | 40 | 1010.3 |
| 20260504180049 | 73 | 252 | 4.3 | 11.3 | 0.00 | 0.00 | 0.00 | 39 | 1010.5 |
| 20260504174533 | 73 | 220 | 4.3 | 10.4 | 0.00 | 0.00 | 0.00 | 41 | 1010.7 |
| 20260504173035 | 73 | 159 | 2.6 | 7.0 | 0.00 | 0.00 | 0.00 | 43 | 1010.9 |
| 20260504171530 | 72 | 146 | 4.3 | 9.6 | 0.00 | 0.00 | 0.00 | 40 | 1011.3 |
| 20260504081504 | 49 | 208 | 0.9 | 3.5 | 0.00 | 0.00 | 0.00 | 58 | 1014.1 |
| 20260504044540 | 52 | 200 | 0.9 | 4.3 | 0.00 | 0.00 | 0.00 | 53 | 1014.0 |
| 20260504043044 | 52 | 243 | 1.7 | 6.1 | 0.00 | 0.00 | 0.00 | 52 | 1014.0 |
| 20260504041539 | 52 | 184 | 0.0 | 5.2 | 0.00 | 0.00 | 0.00 | 52 | 1014.0 |
| 20260504040047 | 53 | 232 | 1.7 | 5.2 | 0.00 | 0.00 | 0.00 | 51 | 1013.7 |
| 20260504034539 | 53 | 204 | 2.6 | 6.1 | 0.00 | 0.00 | 0.00 | 50 | 1013.7 |
| 20260504033041 | 53 | 207 | 0.9 | 5.2 | 0.00 | 0.00 | 0.00 | 51 | 1013.4 |
| 20260504031536 | 52 | 253 | 0.0 | 3.5 | 0.00 | 0.00 | 0.00 | 50 | 1013.4 |
| 20260504030041 | 53 | 192 | 0.0 | 2.6 | 0.00 | 0.00 | 0.00 | 50 | 1013.4 |
| 20260504024537 | 53 | 237 | 0.0 | 2.6 | 0.00 | 0.00 | 0.00 | 48 | 1013.4 |
| 20260504023036 | 53 | 202 | 0.0 | 3.5 | 0.00 | 0.00 | 0.00 | 48 | 1013.4 |
| 20260504021536 | 53 | 245 | 0.0 | 2.6 | 0.00 | 0.00 | 0.00 | 49 | 1013.5 |
| 20260504020041 | 53 | 234 | 0.9 | 2.6 | 0.00 | 0.00 | 0.00 | 48 | 1013.5 |
| 20260504014537 | 53 | 215 | 0.0 | 1.7 | 0.00 | 0.00 | 0.00 | 49 | 1013.4 |
| 20260504013036 | 54 | 201 | 0.0 | 2.6 | 0.00 | 0.00 | 0.00 | 49 | 1013.3 |
| 20260504011533 | 54 | 220 | 0.9 | 1.7 | 0.00 | 0.00 | 0.00 | 48 | 1013.3 |
| 20260504010031 | 55 | 234 | 0.0 | 1.7 | 0.00 | 0.00 | 0.00 | 47 | 1013.1 |
| 20260504004530 | 55 | 250 | 0.9 | 2.6 | 0.00 | 0.00 | 0.00 | 45 | 1013.0 |
| 20260504003031 | 56 | 233 | 0.0 | 2.6 | 0.00 | 0.00 | 0.00 | 44 | 1012.8 |
| 20260504001532 | 57 | 201 | 0.0 | 4.3 | 0.00 | 0.00 | 0.00 | 43 | 1012.6 |
| 20260504000028 | 57 | 223 | 0.0 | 3.5 | 0.00 | 0.00 | 0.00 | 44 | 1012.4 |
| 20260503234529 | 58 | 252 | 0.9 | 5.2 | 0.00 | 0.00 | 0.00 | 42 | 1012.3 |
| 20260503233026 | 59 | 281 | 0.9 | 7.0 | 0.00 | 0.00 | 0.00 | 41 | 1012.3 |
| 20260503231527 | 59 | 256 | 0.9 | 5.2 | 0.00 | 0.00 | 0.00 | 42 | 1012.2 |
| 20260503230031 | 60 | 335 | 0.9 | 8.7 | 0.00 | 0.00 | 0.00 | 41 | 1012.0 |
| 20260503224526 | 61 | 284 | 0.9 | 8.7 | 0.00 | 0.00 | 0.00 | 39 | 1012.2 |
| 20260503223026 | 61 | 314 | 1.7 | 8.7 | 0.00 | 0.00 | 0.00 | 38 | 1012.0 |
| 20260503221525 | 61 | 103 | 0.9 | 10.4 | 0.00 | 0.00 | 0.00 | 40 | 1012.0 |
| 20260503220024 | 62 | 306 | 1.7 | 10.4 | 0.00 | 0.00 | 0.00 | 37 | 1012.2 |